[[{"header":{"parameterUnit":"m.s-1","parameterCategory":1,"la1":30.2991,"la2":30.254,"lo1":-89.0895,"lo2":-89.0444,"dy":0.0017,"dx":0.0017,"nx":28,"ny":28,"refTime":"2023-11-06T09:00:00:Z","depth":0,"parameterNumber":2,"parameterNumberName":"U-component_of_WINDS"},"data":[0,0,0,0,0,0,0,0,0,0,0,0,0,0,0,0,0,0,0,0,0,0,0,0,0,0,0,0,0,0,0,0,0,0,0,0,0,0,0,0,0,0,0,0,0,0,0,0,0,0,0,0,0,0,0,0,0,0,0.8545,0.8546,0,0.8617,0.8617,0.8618,0.8595,0.8593,0.8592,0.859,0.8668,0.8672,0.8675,0,0,0,0,0,0,0,0,0,0,0,0,0,0.8394,0.8397,0.8545,0.8546,0.8547,0.8616,0.8617,0.8618,0.8595,0.8593,0.8591,0.8589,0.8667,0.8671,0.8675,0,0,0,0,0,0,0,0,0,0,0,0,0,0.8462,0.8398,0.8545,0.8543,0.8544,0.8616,0.8617,0.8619,0.8595,0.8593,0.8591,0.8589,0.8666,0.8671,0.8676,0.8755,0,0,0.8692,0.8694,0,0,0,0,0,0,0,0,0.8458,0.8468,0.8543,0.8544,0.8544,0.8594,0.8593,0.8665,0.8596,0.8576,0.859,0.8587,0.8646,0.8652,0.8671,0.8759,0.8762,0.8693,0.8696,0.8698,0.87,0,0,0,0,0,0,0,0.8453,0.8464,0.8573,0.8544,0.8545,0.8541,0.8548,0.8606,0.8623,0.8578,0.8576,0.8585,0.8646,0.8666,0.8673,0.8763,0.8692,0.8697,0.87,0.8702,0.8923,0.8925,0,0,0,0,0,0,0.8448,0.8461,0.8571,0.8576,0.8494,0.8546,0.8554,0.8581,0.8622,0.8627,0.8586,0.8583,0.8658,0.8667,0.8675,0.8773,0.8698,0.8703,0.8706,0.892,0.8923,0.8926,0,0,0,0,0,0,0.8444,0.8458,0.8568,0.8518,0.8531,0.8551,0.8581,0.8583,0.8604,0.8629,0.8633,0.8604,0.8657,0.8668,0.8736,0.8775,0.8705,0.871,0.8917,0.8921,0.8925,0.8967,0,0,0,0,0,0,0.844,0.8457,0.8485,0.8518,0.8534,0.8626,0.8584,0.8586,0.8612,0.8609,0.8646,0.865,0.8656,0.8728,0.8741,0.8781,0.8714,0.8914,0.8919,0.8924,0.8962,0.8972,0.898,0,0,0,0,0,0.8435,0.8495,0.8487,0.8501,0.857,0.8628,0.8637,0.8641,0.8615,0.8646,0.8663,0.8649,0.8769,0.8735,0.875,0.8792,0.8911,0.8917,0.8923,0.8958,0.897,0.898,0,0,0,0,0,0,0.8467,0.8499,0.8491,0.8563,0.8593,0.8624,0.8662,0.8653,0.8692,0.8687,0.8691,0.87,0.877,0.8788,0.875,0.8872,0.8836,0.8846,0.8858,0.887,0.8879,0.8873,0.8719,0,0,0,0,0,0.8483,0.8525,0.8551,0.8613,0.8628,0.8643,0.8668,0.8668,0.87,0.8713,0.8734,0.8767,0.8812,0.8842,0.8884,0.8965,0.8974,0.9001,0.901,0.9017,0.9026,0.9072,0.9085,0.8946,0.8946,0.8946,0,0,0.8515,0.8538,0.8565,0.862,0.8643,0.8689,0.8653,0.8703,0.8738,0.8721,0.8786,0.8803,0.884,0.8915,0.8949,0.8932,0.9066,0.9025,0.9031,0.9035,0.9079,0.9092,0.9104,0.895,0.8949,0.8949,0,0,0.8598,0.8619,0.8673,0.8697,0.8732,0.8742,0.8755,0.8788,0.8798,0.8864,0.8852,0.8895,0.8972,0.8999,0.9023,0.9118,0.9109,0.9132,0.918,0.9225,0.9236,0.9246,0.9281,0.9294,0.914,0.9141,0.9141,0,0.8635,0.8701,0.8703,0.8753,0.8779,0.8765,0.8821,0.8845,0.8893,0.8912,0.8892,0.8989,0.9013,0.9095,0.9118,0.9138,0.9155,0.9128,0.9234,0.9244,0.9253,0.9287,0.93,0.9143,0.9143,0.9143,0.9142,0,0.8746,0.8793,0.8832,0.8878,0.8908,0.8962,0.8973,0.9004,0.9002,0.9014,0.9083,0.9111,0.916,0.9179,0.9178,0.9262,0.9251,0.9232,0.9196,0.9269,0.9301,0.9314,0.9147,0.9146,0.9145,0.9145,0,0,0.885,0.8897,0.8912,0.8933,0.8972,0.9009,0.9063,0.911,0.9137,0.9171,0.9218,0.9284,0.9268,0.9295,0.9297,0.9336,0.9413,0.9313,0.9314,0.9332,0.9509,0.9524,0.9539,0.9406,0.9408,0.941,0.9507,0,0.8938,0.903,0.9034,0.912,0.9164,0.9152,0.92,0.923,0.9243,0.9285,0.93,0.9348,0.9322,0.9338,0.9376,0.9395,0.9448,0.9388,0.9452,0.9454,0.9444,0.9555,0.957,0.966,0.9519,0.9521,0.9523,0,0.9051,0.9088,0.9178,0.9212,0.9231,0.9273,0.9318,0.9357,0.9392,0.9399,0.943,0.9427,0.9485,0.9446,0.9527,0.9486,0.9513,0.9526,0.953,0.9537,0.9493,0.9567,0.9688,0.9702,0.9542,0.9541,0.9539,0,0.9121,0.9193,0.9257,0.9275,0.9316,0.9347,0.9365,0.9398,0.9426,0.9466,0.9485,0.9531,0.9556,0.9593,0.9604,0.9574,0.9685,0.9647,0.9695,0.9695,0.9719,0.9717,0.9848,0.9734,0.9734,0.9734,0.9733,0,0.9218,0.9274,0.9289,0.9328,0.9391,0.9396,0.9459,0.9476,0.9505,0.9549,0.9542,0.9584,0.9594,0.9639,0.9648,0.9715,0.9726,0.9735,0.9737,0.9736,0.9735,0.9754,0.9749,0.9737,0.9736,0.9736,0.9735,0,0.9306,0.9318,0.9387,0.942,0.943,0.9475,0.9504,0.9544,0.9556,0.9612,0.9626,0.9647,0.9699,0.9713,0.9776,0.9782,0.9861,0.9856,0.9849,0.9849,0.9896,0.9892,1.0044,1.0066,0.9937,0.9938,0.9939,0,0.9368,0.9411,0.9449,0.9477,0.9497,0.9543,0.9572,0.9579,0.961,0.9654,0.9688,0.9739,0.9781,0.9865,0.9888,0.9936,0.9934,0.9984,0.9941,0.994,0.9936,0.9934,0.9939,0.9992,0.9993,0.9995,0.9995,0,0.9477,0.9481,0.9522,0.9567,0.9602,0.9637,0.9671,0.9696,0.9708,0.9744,0.9796,0.9828,0.9893,0.9945,0.9994,1.0015,1.0009,1.0009,1.0023,1.0023,1.0017,1.0022,0.9872,1.0005,1.0004,1.0004,1.0003,1.0003,0.9555,0.9593,0.9626,0.9673,0.97,0.9732,0.9771,0.9789,0.9832,0.9884,0.9886,0.9944,0.9981,1.0046,1.007,1.0117,1.0103,1.0122,1.0128,1.0133,1.0137,1.0009,1.0126,1.0126,1.0126,1.0126,1.0126,0,0.9665,0.9685,0.9729,0.9777,0.9815,0.9803,0.9841,0.9874,0.9925,0.9958,0.9999,1.0061,1.0112,1.0139,1.019,1.0222,1.0221,1.0236,1.0234,1.0239,1.0147,1.013,1.0236,1.0236,1.0236,1.0236,1.0236,1.0236,0.9726,0.9791,0.9799,0.9878,0.9899,0.9955,0.9977,1.0008,1.0035,1.0105,1.0146,1.0163,1.0194,1.0248,1.0295,1.0302,1.0321,1.0338,1.0344,1.0257,1.0246,1.0235,1.022,1.0342,1.0343,1.0432,1.0433,1.0434]},{"header":{"parameterUnit":"m.s-1","parameterCategory":1,"la1":30.2991,"la2":30.254,"lo1":-89.0895,"lo2":-89.0444,"dy":0.0017,"dx":0.0017,"nx":28,"ny":28,"refTime":"2023-11-06T09:00:00:Z","depth":0,"parameterNumber":3,"parameterNumberName":"V-component_of_WINDS"},"data":[0,0,0,0,0,0,0,0,0,0,0,0,0,0,0,0,0,0,0,0,0,0,0,0,0,0,0,0,0,0,0,0,0,0,0,0,0,0,0,0,0,0,0,0,0,0,0,0,0,0,0,0,0,0,0,0,0,0,1.3325,1.3326,0,1.3487,1.3489,1.3491,1.3526,1.3525,1.3523,1.3522,1.3694,1.37,1.3705,0,0,0,0,0,0,0,0,0,0,0,0,0,1.3051,1.3056,1.3324,1.3326,1.3328,1.3487,1.3489,1.3491,1.3526,1.3525,1.3523,1.3522,1.3692,1.3699,1.3706,0,0,0,0,0,0,0,0,0,0,0,0,0,1.3187,1.3058,1.3324,1.3365,1.337,1.3486,1.3489,1.3492,1.3526,1.3525,1.3523,1.3521,1.369,1.3698,1.3707,1.3795,0,0,1.3733,1.3737,0,0,0,0,0,0,0,0,1.318,1.3197,1.3357,1.3362,1.3368,1.3484,1.3456,1.3594,1.3527,1.3467,1.3522,1.352,1.3626,1.364,1.3674,1.3803,1.3811,1.3734,1.3739,1.3742,1.3745,0,0,0,0,0,0,0,1.317,1.3191,1.3389,1.3359,1.3366,1.3377,1.3395,1.3482,1.3555,1.3472,1.3475,1.3494,1.3629,1.3666,1.3679,1.3813,1.3733,1.3741,1.3746,1.375,1.4027,1.4029,0,0,0,0,0,0,1.3153,1.3183,1.3384,1.3394,1.3267,1.3384,1.3403,1.3449,1.3554,1.3568,1.3495,1.3495,1.3652,1.3669,1.3685,1.3798,1.3742,1.375,1.3755,1.4024,1.4027,1.4029,0,0,0,0,0,0,1.3147,1.317,1.3377,1.3289,1.3316,1.339,1.3441,1.3453,1.349,1.3571,1.3585,1.3519,1.3652,1.3673,1.3768,1.3804,1.3754,1.3762,1.4022,1.4025,1.4028,1.4024,0,0,0,0,0,0,1.3139,1.3168,1.3201,1.3289,1.3321,1.3456,1.3444,1.3458,1.3504,1.3505,1.3597,1.3611,1.3652,1.3755,1.3776,1.3815,1.3769,1.4019,1.4023,1.4027,1.4021,1.4026,1.4031,0,0,0,0,0,1.3129,1.3194,1.3202,1.3226,1.3363,1.3458,1.3476,1.352,1.3507,1.3542,1.3594,1.3608,1.3796,1.3764,1.3789,1.3831,1.4017,1.4022,1.4027,1.4019,1.4025,1.4031,0,0,0,0,0,0,1.3109,1.3206,1.3217,1.3311,1.3376,1.3463,1.3509,1.3525,1.3596,1.3594,1.3647,1.3668,1.3761,1.3805,1.3768,1.3924,1.3906,1.3916,1.3892,1.3899,1.3904,1.3892,1.3776,0,0,0,0,0,1.3115,1.3182,1.3264,1.334,1.3371,1.3434,1.3477,1.3505,1.3575,1.3603,1.3662,1.3731,1.3806,1.3854,1.3927,1.4026,1.4049,1.4068,1.4073,1.4076,1.4086,1.4144,1.4155,1.4046,1.4046,1.4046,0,0,1.313,1.3191,1.323,1.3337,1.3391,1.3461,1.3457,1.3531,1.3585,1.3615,1.3709,1.3754,1.3835,1.3933,1.3979,1.3973,1.412,1.4083,1.4085,1.4093,1.4151,1.4161,1.417,1.4049,1.4049,1.4048,0,0,1.3193,1.3244,1.3315,1.3368,1.3448,1.349,1.3506,1.3592,1.3623,1.3717,1.3742,1.3807,1.3934,1.3991,1.4037,1.4122,1.4139,1.4145,1.4172,1.4229,1.4238,1.4246,1.4279,1.429,1.4153,1.4153,1.4153,0,1.3202,1.3307,1.3349,1.3423,1.3471,1.3499,1.3572,1.3622,1.3723,1.3757,1.3747,1.3909,1.3964,1.4078,1.4099,1.4133,1.4157,1.4136,1.4232,1.4241,1.4249,1.4282,1.4294,1.4153,1.4153,1.4153,1.4153,0,1.3315,1.3388,1.3435,1.353,1.3583,1.3656,1.3712,1.3761,1.3784,1.3827,1.3925,1.3993,1.4081,1.411,1.4134,1.4228,1.4221,1.4221,1.4206,1.4259,1.4291,1.4304,1.4154,1.4154,1.4153,1.4153,0,0,1.3372,1.3489,1.3506,1.3551,1.3642,1.37,1.3775,1.386,1.3902,1.3971,1.4037,1.4144,1.4145,1.4197,1.4228,1.4277,1.4344,1.4272,1.4275,1.4286,1.4456,1.4457,1.4471,1.4355,1.4357,1.4359,1.445,0,1.3449,1.3582,1.3623,1.3736,1.3805,1.3833,1.3899,1.3963,1.4006,1.4073,1.412,1.4196,1.419,1.4222,1.4272,1.4325,1.438,1.4319,1.4421,1.4424,1.4403,1.4487,1.4488,1.4571,1.4462,1.4464,1.4466,0,1.3556,1.3625,1.3745,1.3828,1.3859,1.3917,1.4,1.4062,1.4136,1.4164,1.4221,1.4248,1.4331,1.4308,1.4424,1.4382,1.4426,1.4458,1.4463,1.4477,1.445,1.4506,1.4598,1.4611,1.4485,1.4484,1.4482,0,1.359,1.3712,1.38,1.3837,1.3936,1.3977,1.402,1.4092,1.4141,1.4214,1.4247,1.4328,1.4374,1.4437,1.4486,1.4464,1.4599,1.458,1.4627,1.4626,1.4657,1.4655,1.476,1.468,1.4679,1.4679,1.4679,0,1.3673,1.3745,1.3817,1.3871,1.3955,1.4001,1.4083,1.4129,1.4193,1.4258,1.4287,1.4349,1.4408,1.4479,1.4517,1.461,1.4629,1.4656,1.4666,1.4655,1.4652,1.4687,1.4684,1.4682,1.4682,1.4681,1.468,0,1.3725,1.3775,1.3874,1.3959,1.3982,1.404,1.4114,1.4169,1.4212,1.4295,1.4318,1.4386,1.4471,1.4525,1.4632,1.4659,1.4761,1.4767,1.4735,1.4741,1.4787,1.4783,1.4921,1.4943,1.4844,1.4844,1.4845,0,1.3776,1.3833,1.3924,1.3969,1.4012,1.4084,1.4135,1.4183,1.4235,1.4324,1.437,1.4455,1.4527,1.466,1.4721,1.4804,1.4816,1.4858,1.4829,1.4817,1.4821,1.4818,1.4825,1.4864,1.4865,1.4865,1.4866,0,1.3863,1.3885,1.3955,1.4035,1.4093,1.4159,1.4224,1.426,1.432,1.4377,1.4463,1.4518,1.4628,1.4714,1.4802,1.485,1.487,1.4874,1.489,1.4882,1.4862,1.4877,1.4752,1.4872,1.4871,1.4871,1.487,1.487,1.3919,1.3972,1.4044,1.4122,1.4176,1.4236,1.4293,1.4343,1.4415,1.4507,1.4531,1.4622,1.4697,1.4818,1.4866,1.494,1.4935,1.4957,1.4964,1.4969,1.4972,1.4847,1.4956,1.4955,1.4955,1.4955,1.4955,0,1.401,1.4058,1.4129,1.4219,1.4281,1.4291,1.4364,1.4416,1.4495,1.4562,1.4631,1.4731,1.4815,1.4882,1.4969,1.5015,1.5026,1.5036,1.5035,1.5047,1.4969,1.4948,1.5026,1.5026,1.5026,1.5026,1.5026,1.5026,1.4065,1.4155,1.4186,1.4305,1.4353,1.444,1.4482,1.4539,1.4593,1.4703,1.4772,1.4814,1.4882,1.4975,1.5053,1.5071,1.5103,1.5112,1.5132,1.5059,1.5052,1.5044,1.5025,1.5117,1.5118,1.5204,1.5205,1.5205]}]]